| time (UTC) | temp C | wind direction | speed KPH | gust KPH | rain 1hr cm | rain 24hr cm | rain mn cm | humidity % | barometer mb |
| 20260507225333 | 14 | 209 | 0.0 | 8.0 | 0.00 | 0.13 | 0.13 | 72 | 1002.4 |
| 20260507224835 | 14 | 258 | 1.6 | 8.0 | 0.00 | 0.13 | 0.13 | 73 | 1002.3 |
| 20260507224330 | 14 | 201 | 1.6 | 11.3 | 0.00 | 0.13 | 0.13 | 75 | 1002.3 |
| 20260507223831 | 14 | 92 | 1.6 | 8.0 | 0.00 | 0.13 | 0.13 | 75 | 1002.2 |
| 20260507223329 | 14 | 280 | 1.6 | 11.3 | 0.00 | 0.13 | 0.13 | 74 | 1002.3 |
| 20260507222825 | 14 | 197 | 1.6 | 11.3 | 0.00 | 0.13 | 0.13 | 74 | 1002.3 |
| 20260507222323 | 14 | 107 | 0.0 | 4.8 | 0.00 | 0.13 | 0.13 | 73 | 1002.4 |
| 20260507221821 | 14 | 207 | 0.0 | 4.8 | 0.00 | 0.13 | 0.13 | 73 | 1002.3 |
| 20260507221322 | 14 | 204 | 1.6 | 4.8 | 0.00 | 0.13 | 0.13 | 73 | 1002.3 |
| 20260507220821 | 14 | 135 | 1.6 | 9.7 | 0.00 | 0.13 | 0.13 | 72 | 1002.2 |
| 20260507220317 | 14 | 184 | 3.2 | 11.3 | 0.00 | 0.13 | 0.13 | 70 | 1002.0 |
| 20260507215814 | 14 | 110 | 3.2 | 11.3 | 0.00 | 0.13 | 0.13 | 68 | 1002.1 |
| 20260507215311 | 14 | 71 | 1.6 | 9.7 | 0.00 | 0.13 | 0.13 | 69 | 1002.0 |
| 20260507214810 | 14 | 58 | 1.6 | 9.7 | 0.00 | 0.13 | 0.13 | 67 | 1002.1 |
| 20260507213806 | 14 | 86 | 1.6 | 4.8 | 0.00 | 0.13 | 0.13 | 66 | 1002.1 |
| 20260507213302 | 14 | 295 | 1.6 | 9.7 | 0.00 | 0.13 | 0.13 | 66 | 1002.2 |
| 20260507212803 | 14 | 285 | 1.6 | 9.7 | 0.00 | 0.13 | 0.13 | 64 | 1002.1 |
| 20260507212307 | 14 | 153 | 1.6 | 8.0 | 0.00 | 0.13 | 0.13 | 63 | 1002.2 |
| 20260507211802 | 14 | 173 | 1.6 | 6.4 | 0.00 | 0.13 | 0.13 | 66 | 1002.3 |
| 20260507211302 | 14 | 118 | 3.2 | 9.7 | 0.00 | 0.13 | 0.13 | 66 | 1002.3 |
| 20260507210802 | 14 | 39 | 3.2 | 11.3 | 0.00 | 0.13 | 0.13 | 67 | 1002.1 |
| 20260507210301 | 15 | 164 | 1.6 | 11.3 | 0.00 | 0.13 | 0.13 | 69 | 1002.3 |
| 20260507205800 | 14 | 118 | 1.6 | 9.7 | 0.00 | 0.13 | 0.13 | 71 | 1002.3 |
| 20260507205301 | 14 | 179 | 3.2 | 9.7 | 0.00 | 0.13 | 0.13 | 71 | 1002.3 |
| 20260507204301 | 14 | 161 | 1.6 | 9.7 | 0.00 | 0.13 | 0.13 | 71 | 1002.4 |
| 20260507203802 | 14 | 256 | 1.6 | 12.9 | 0.00 | 0.13 | 0.13 | 71 | 1002.2 |
| 20260507203301 | 15 | 149 | 3.2 | 12.9 | 0.00 | 0.13 | 0.13 | 71 | 1002.4 |
| 20260507202801 | 15 | 100 | 3.2 | 11.3 | 0.00 | 0.13 | 0.13 | 73 | 1002.3 |
| 20260507202300 | 14 | 235 | 3.2 | 11.3 | 0.00 | 0.13 | 0.13 | 71 | 1002.4 |
| 20260507201802 | 14 | 80 | 3.2 | 12.9 | 0.00 | 0.13 | 0.13 | 70 | 1002.4 |
| 20260507201259 | 14 | 259 | 3.2 | 12.9 | 0.00 | 0.13 | 0.13 | 71 | 1002.5 |
| 20260507200800 | 13 | 162 | 1.6 | 14.5 | 0.00 | 0.13 | 0.13 | 71 | 1002.4 |
| 20260507195800 | 13 | 128 | 1.6 | 9.7 | 0.00 | 0.13 | 0.13 | 71 | 1002.4 |
| 20260507194254 | 13 | 117 | 1.6 | 6.4 | 0.00 | 0.13 | 0.13 | 70 | 1002.8 |
| 20260507193754 | 13 | 110 | 1.6 | 6.4 | 0.00 | 0.13 | 0.13 | 66 | 1003.0 |
| 20260507192757 | 13 | 68 | 3.2 | 9.7 | 0.03 | 0.13 | 0.13 | 65 | 1002.7 |
| 20260507192255 | 13 | 135 | 1.6 | 6.4 | 0.03 | 0.13 | 0.13 | 70 | 1002.5 |
| 20260507191755 | 13 | 196 | 1.6 | 6.4 | 0.03 | 0.13 | 0.13 | 68 | 1002.6 |
| 20260507190255 | 14 | 149 | 1.6 | 6.4 | 0.03 | 0.13 | 0.13 | 67 | 1003.1 |
| 20260507185256 | 13 | 16 | 0.0 | 3.2 | 0.03 | 0.13 | 0.13 | 77 | 1003.3 |
| 20260507184755 | 12 | 181 | 0.0 | 3.2 | 0.03 | 0.13 | 0.13 | 76 | 1003.3 |
| 20260507184254 | 12 | 81 | 0.0 | 3.2 | 0.03 | 0.13 | 0.13 | 78 | 1003.4 |
| 20260507183756 | 12 | 81 | 0.0 | 3.2 | 0.03 | 0.13 | 0.13 | 77 | 1003.3 |
| 20260507183256 | 12 | 174 | 0.0 | 3.2 | 0.00 | 0.13 | 0.10 | 73 | 1003.8 |
| 20260507182255 | 13 | 174 | 0.0 | 1.6 | 0.00 | 0.13 | 0.10 | 64 | 1003.9 |
| 20260507181755 | 13 | 196 | 0.0 | 6.4 | 0.00 | 0.13 | 0.10 | 62 | 1003.9 |
| 20260507181254 | 13 | 195 | 0.0 | 6.4 | 0.00 | 0.13 | 0.10 | 63 | 1003.7 |
| 20260507180254 | 13 | 136 | 0.0 | 3.2 | 0.00 | 0.13 | 0.10 | 67 | 1003.7 |
| 20260507175252 | 13 | 103 | 1.6 | 4.8 | 0.00 | 0.13 | 0.10 | 60 | 1004.1 |
| 20260507174752 | 13 | 243 | 1.6 | 6.4 | 0.00 | 0.13 | 0.10 | 62 | 1004.0 |
| 20260507174250 | 13 | 275 | 0.0 | 6.4 | 0.00 | 0.13 | 0.10 | 59 | 1003.8 |
| 20260507173248 | 13 | 224 | 0.0 | 4.8 | 0.00 | 0.13 | 0.10 | 61 | 1003.9 |
| 20260507172750 | 13 | 255 | 1.6 | 9.7 | 0.00 | 0.13 | 0.10 | 62 | 1004.1 |
| 20260507172249 | 13 | 300 | 0.0 | 9.7 | 0.00 | 0.13 | 0.10 | 61 | 1004.0 |
| 20260507171749 | 13 | 56 | 0.0 | 3.2 | 0.00 | 0.13 | 0.10 | 67 | 1004.3 |
| 20260507171250 | 13 | 313 | 1.6 | 6.4 | 0.00 | 0.13 | 0.10 | 68 | 1004.3 |
| 20260507170748 | 13 | 278 | 1.6 | 6.4 | 0.00 | 0.13 | 0.10 | 65 | 1004.2 |
| 20260507165748 | 13 | 214 | 0.0 | 3.2 | 0.00 | 0.13 | 0.10 | 67 | 1004.2 |
| 20260507165248 | 13 | 282 | 0.0 | 1.6 | 0.00 | 0.13 | 0.10 | 71 | 1004.5 |
| 20260507164249 | 12 | 282 | 0.0 | 1.6 | 0.00 | 0.13 | 0.10 | 72 | 1004.8 |
| 20260507163748 | 12 | 282 | 0.0 | 1.6 | 0.00 | 0.13 | 0.10 | 67 | 1005.2 |
| 20260507163247 | 12 | 282 | 0.0 | 1.6 | 0.00 | 0.13 | 0.10 | 67 | 1005.1 |
| 20260507162743 | 12 | 289 | 0.0 | 6.4 | 0.00 | 0.13 | 0.10 | 65 | 1004.9 |
| 20260507161744 | 13 | 300 | 1.6 | 4.8 | 0.00 | 0.13 | 0.10 | 65 | 1005.0 |
| 20260507160743 | 13 | 48 | 1.6 | 14.5 | 0.00 | 0.13 | 0.10 | 67 | 1004.7 |
| 20260507160239 | 13 | 317 | 0.0 | 14.5 | 0.00 | 0.13 | 0.10 | 69 | 1004.9 |
| 20260507155738 | 13 | 330 | 0.0 | 3.2 | 0.00 | 0.13 | 0.10 | 70 | 1005.2 |
| 20260507155240 | 13 | 298 | 0.0 | 3.2 | 0.00 | 0.13 | 0.10 | 70 | 1005.1 |
| 20260507154738 | 13 | 278 | 0.0 | 6.4 | 0.00 | 0.13 | 0.10 | 69 | 1005.1 |
| 20260507154239 | 13 | 341 | 1.6 | 6.4 | 0.00 | 0.13 | 0.10 | 67 | 1005.1 |
| 20260507153738 | 13 | 329 | 1.6 | 6.4 | 0.00 | 0.13 | 0.10 | 69 | 1005.1 |
| 20260507152739 | 13 | 291 | 0.0 | 4.8 | 0.00 | 0.13 | 0.10 | 64 | 1005.0 |
| 20260507152239 | 13 | 43 | 0.0 | 4.8 | 0.00 | 0.13 | 0.10 | 69 | 1005.2 |
| 20260507151736 | 13 | 307 | 1.6 | 6.4 | 0.00 | 0.13 | 0.10 | 67 | 1005.1 |
| 20260507151235 | 13 | 0 | 1.6 | 6.4 | 0.00 | 0.13 | 0.10 | 66 | 1005.1 |
| 20260507150735 | 13 | 194 | 1.6 | 4.8 | 0.00 | 0.13 | 0.10 | 65 | 1005.1 |
| 20260507150236 | 13 | 70 | 1.6 | 8.0 | 0.00 | 0.13 | 0.10 | 70 | 1004.9 |
| 20260507145734 | 13 | 350 | 1.6 | 8.0 | 0.00 | 0.15 | 0.10 | 67 | 1004.8 |
| 20260507144734 | 13 | 295 | 1.6 | 8.0 | 0.00 | 0.18 | 0.10 | 71 | 1005.3 |
| 20260507144235 | 13 | 336 | 1.6 | 9.7 | 0.00 | 0.18 | 0.10 | 73 | 1005.5 |
| 20260507143735 | 13 | 314 | 1.6 | 9.7 | 0.00 | 0.18 | 0.10 | 70 | 1005.6 |
| 20260507143231 | 13 | 290 | 1.6 | 8.0 | 0.00 | 0.18 | 0.10 | 70 | 1005.7 |
| 20260507142731 | 13 | 305 | 3.2 | 12.9 | 0.00 | 0.20 | 0.10 | 72 | 1005.5 |
| 20260507142230 | 13 | 10 | 3.2 | 14.5 | 0.00 | 0.25 | 0.10 | 72 | 1005.6 |
| 20260507141730 | 13 | 18 | 3.2 | 14.5 | 0.00 | 0.25 | 0.10 | 71 | 1005.7 |
| 20260507141230 | 13 | 0 | 1.6 | 8.0 | 0.00 | 0.25 | 0.10 | 71 | 1005.5 |
| 20260507140731 | 13 | 45 | 1.6 | 6.4 | 0.00 | 0.25 | 0.10 | 72 | 1005.7 |
| 20260507140230 | 13 | 132 | 1.6 | 12.9 | 0.00 | 0.25 | 0.10 | 73 | 1005.8 |
| 20260507135731 | 13 | 33 | 3.2 | 12.9 | 0.00 | 0.25 | 0.10 | 72 | 1005.8 |
| 20260507135230 | 13 | 10 | 3.2 | 8.0 | 0.00 | 0.28 | 0.10 | 71 | 1005.8 |
| 20260507134732 | 13 | 345 | 3.2 | 12.9 | 0.00 | 0.28 | 0.10 | 72 | 1005.9 |
| 20260507133729 | 13 | 297 | 3.2 | 8.0 | 0.00 | 0.28 | 0.10 | 72 | 1005.7 |
| 20260507133231 | 13 | 42 | 3.2 | 14.5 | 0.00 | 0.28 | 0.10 | 73 | 1005.5 |
| 20260507132231 | 13 | 102 | 1.6 | 9.7 | 0.00 | 0.28 | 0.10 | 73 | 1005.5 |
| 20260507131730 | 13 | 332 | 3.2 | 9.7 | 0.00 | 0.30 | 0.10 | 75 | 1005.5 |
| 20260507130229 | 13 | 88 | 3.2 | 14.5 | 0.00 | 0.30 | 0.10 | 77 | 1005.5 |
| 20260507125729 | 13 | 343 | 1.6 | 8.0 | 0.00 | 0.30 | 0.10 | 77 | 1005.6 |
| 20260507125230 | 13 | 338 | 1.6 | 3.2 | 0.00 | 0.30 | 0.10 | 80 | 1005.6 |
| 20260507123227 | 13 | 87 | 1.6 | 6.4 | 0.00 | 0.30 | 0.10 | 81 | 1005.3 |
| 20260507122729 | 13 | 281 | 1.6 | 4.8 | 0.00 | 0.30 | 0.10 | 82 | 1005.4 |
| 20260507122224 | 13 | 328 | 1.6 | 4.8 | 0.00 | 0.30 | 0.10 | 82 | 1005.4 |
| 20260507121725 | 13 | 276 | 1.6 | 6.4 | 0.00 | 0.30 | 0.10 | 83 | 1005.2 |
| 20260507121222 | 13 | 291 | 1.6 | 6.4 | 0.00 | 0.30 | 0.10 | 82 | 1005.1 |
| 20260507120220 | 13 | 330 | 0.0 | 4.8 | 0.00 | 0.30 | 0.10 | 83 | 1004.7 |
| 20260507115218 | 13 | 252 | 1.6 | 6.4 | 0.00 | 0.30 | 0.10 | 85 | 1004.9 |
| 20260507114718 | 12 | 341 | 1.6 | 6.4 | 0.00 | 0.30 | 0.10 | 84 | 1005.0 |
| 20260507113715 | 12 | 232 | 0.0 | 6.4 | 0.00 | 0.30 | 0.10 | 85 | 1005.0 |
| 20260507113215 | 12 | 346 | 0.0 | 6.4 | 0.00 | 0.30 | 0.10 | 85 | 1005.0 |
| 20260507112209 | 12 | 254 | 1.6 | 4.8 | 0.00 | 0.30 | 0.10 | 85 | 1004.6 |
| 20260507111707 | 12 | 347 | 1.6 | 4.8 | 0.00 | 0.30 | 0.10 | 85 | 1004.8 |
| 20260507111203 | 12 | 318 | 1.6 | 4.8 | 0.00 | 0.30 | 0.10 | 85 | 1004.7 |
| 20260507110703 | 12 | 320 | 1.6 | 4.8 | 0.00 | 0.30 | 0.10 | 85 | 1004.8 |
| 20260507110201 | 12 | 0 | 1.6 | 8.0 | 0.00 | 0.30 | 0.10 | 86 | 1004.9 |
| 20260507105700 | 12 | 301 | 1.6 | 8.0 | 0.00 | 0.30 | 0.10 | 86 | 1004.8 |
| 20260507105158 | 12 | 299 | 0.0 | 3.2 | 0.00 | 0.30 | 0.10 | 87 | 1004.7 |
| 20260507104659 | 12 | 10 | 0.0 | 3.2 | 0.00 | 0.30 | 0.10 | 87 | 1004.7 |
| 20260507104159 | 12 | 309 | 0.0 | 3.2 | 0.00 | 0.30 | 0.10 | 87 | 1004.6 |
| 20260507103656 | 12 | 299 | 0.0 | 3.2 | 0.00 | 0.30 | 0.10 | 87 | 1004.7 |
| 20260507103149 | 12 | 320 | 0.0 | 1.6 | 0.00 | 0.30 | 0.10 | 87 | 1004.5 |
| 20260507102649 | 12 | 320 | 0.0 | 8.0 | 0.00 | 0.30 | 0.10 | 87 | 1004.5 |
| 20260507102150 | 12 | 322 | 0.0 | 8.0 | 0.00 | 0.30 | 0.10 | 87 | 1004.2 |
| 20260507101651 | 12 | 343 | 0.0 | 3.2 | 0.00 | 0.30 | 0.10 | 87 | 1004.3 |
| 20260507101149 | 12 | 303 | 0.0 | 3.2 | 0.00 | 0.30 | 0.10 | 88 | 1004.2 |
| 20260507100649 | 12 | 14 | 0.0 | 3.2 | 0.00 | 0.30 | 0.10 | 87 | 1004.2 |
| 20260507100149 | 12 | 324 | 0.0 | 4.8 | 0.00 | 0.30 | 0.10 | 87 | 1004.3 |
| 20260507095150 | 12 | 342 | 0.0 | 3.2 | 0.00 | 0.30 | 0.10 | 87 | 1004.4 |
| 20260507094646 | 12 | 320 | 0.0 | 3.2 | 0.00 | 0.30 | 0.10 | 87 | 1004.3 |
| 20260507094145 | 12 | 329 | 0.0 | 1.6 | 0.00 | 0.30 | 0.10 | 88 | 1004.3 |
| 20260507093645 | 12 | 323 | 0.0 | 3.2 | 0.00 | 0.30 | 0.10 | 87 | 1004.2 |
| 20260507093146 | 12 | 324 | 0.0 | 4.8 | 0.00 | 0.30 | 0.10 | 87 | 1004.2 |
| 20260507092646 | 12 | 308 | 0.0 | 4.8 | 0.00 | 0.30 | 0.10 | 87 | 1004.2 |
| 20260507092146 | 12 | 97 | 0.0 | 1.6 | 0.03 | 0.30 | 0.10 | 88 | 1004.2 |
| 20260507091645 | 12 | 97 | 0.0 | 1.6 | 0.03 | 0.30 | 0.10 | 88 | 1004.4 |
| 20260507091145 | 12 | 324 | 0.0 | 4.8 | 0.03 | 0.30 | 0.10 | 88 | 1004.1 |
| 20260507090145 | 12 | 314 | 0.0 | 4.8 | 0.03 | 0.30 | 0.10 | 89 | 1003.8 |
| 20260507085145 | 12 | 320 | 0.0 | 1.6 | 0.03 | 0.30 | 0.10 | 89 | 1003.7 |
| 20260507084144 | 12 | 307 | 0.0 | 3.2 | 0.03 | 0.30 | 0.10 | 89 | 1003.9 |
| 20260507083647 | 12 | 302 | 0.0 | 3.2 | 0.03 | 0.30 | 0.10 | 88 | 1003.9 |
| 20260507083145 | 12 | 277 | 0.0 | 3.2 | 0.03 | 0.30 | 0.10 | 88 | 1003.9 |
| 20260507082646 | 12 | 277 | 0.0 | 3.2 | 0.03 | 0.30 | 0.10 | 88 | 1004.0 |
| 20260507082145 | 12 | 278 | 0.0 | 3.2 | 0.00 | 0.28 | 0.08 | 87 | 1004.2 |
| 20260507081645 | 12 | 353 | 0.0 | 4.8 | 0.00 | 0.28 | 0.08 | 86 | 1004.5 |
| 20260507080145 | 13 | 145 | 3.2 | 12.9 | 0.00 | 0.28 | 0.08 | 85 | 1003.6 |
| 20260507075647 | 13 | 293 | 3.2 | 12.9 | 0.00 | 0.28 | 0.08 | 87 | 1003.6 |
| 20260507075146 | 13 | 297 | 3.2 | 12.9 | 0.00 | 0.28 | 0.08 | 88 | 1003.6 |
| 20260507074647 | 13 | 0 | 1.6 | 6.4 | 0.00 | 0.28 | 0.08 | 89 | 1003.5 |
| 20260507074146 | 13 | 342 | 1.6 | 6.4 | 0.00 | 0.28 | 0.08 | 89 | 1003.5 |
| 20260507073642 | 13 | 342 | 0.0 | 6.4 | 0.00 | 0.28 | 0.08 | 89 | 1003.5 |
| 20260507073142 | 13 | 226 | 1.6 | 6.4 | 0.00 | 0.28 | 0.08 | 89 | 1003.3 |
| 20260507072639 | 13 | 222 | 1.6 | 6.4 | 0.00 | 0.28 | 0.08 | 90 | 1003.1 |
| 20260507072139 | 13 | 0 | 1.6 | 6.4 | 0.00 | 0.28 | 0.08 | 90 | 1003.2 |
| 20260507071638 | 13 | 319 | 1.6 | 6.4 | 0.00 | 0.28 | 0.08 | 90 | 1003.3 |
| 20260507071138 | 13 | 318 | 1.6 | 4.8 | 0.00 | 0.28 | 0.08 | 89 | 1003.4 |
| 20260507070633 | 13 | 355 | 1.6 | 4.8 | 0.00 | 0.28 | 0.08 | 89 | 1003.3 |
| 20260507070136 | 13 | 335 | 1.6 | 9.7 | 0.00 | 0.28 | 0.08 | 89 | 1003.5 |
| 20260507065632 | 13 | 333 | 1.6 | 9.7 | 0.00 | 0.28 | 0.08 | 90 | 1003.3 |
| 20260507064632 | 13 | 304 | 1.6 | 8.0 | 0.03 | 0.28 | 0.08 | 90 | 1003.2 |
| 20260507064132 | 13 | 74 | 3.2 | 6.4 | 0.03 | 0.28 | 0.08 | 90 | 1003.4 |
| 20260507063126 | 13 | 0 | 3.2 | 8.0 | 0.03 | 0.28 | 0.08 | 91 | 1003.7 |
| 20260507061627 | 14 | 320 | 3.2 | 9.7 | 0.05 | 0.28 | 0.08 | 91 | 1003.1 |
| 20260507061126 | 14 | 0 | 1.6 | 6.4 | 0.05 | 0.28 | 0.08 | 91 | 1003.0 |
| 20260507060625 | 14 | 339 | 1.6 | 4.8 | 0.05 | 0.28 | 0.08 | 90 | 1002.6 |
| 20260507060124 | 14 | 16 | 1.6 | 4.8 | 0.05 | 0.28 | 0.08 | 90 | 1002.1 |
| 20260507055623 | 14 | 330 | 0.0 | 4.8 | 0.03 | 0.25 | 0.08 | 90 | 1002.1 |
| 20260507055026 | 14 | 279 | 0.0 | 3.2 | 0.03 | 0.25 | 0.05 | 90 | 1001.9 |
| 20260507054527 | 14 | 170 | 1.6 | 8.0 | 0.03 | 0.25 | 0.05 | 90 | 1002.0 |
| 20260507054027 | 14 | 229 | 1.6 | 8.0 | 0.05 | 0.25 | 0.05 | 89 | 1002.1 |
| 20260507053528 | 14 | 84 | 1.6 | 4.8 | 0.05 | 0.25 | 0.05 | 89 | 1002.3 |
| 20260507053025 | 15 | 325 | 1.6 | 4.8 | 0.05 | 0.25 | 0.05 | 89 | 1002.9 |
| 20260507052525 | 15 | 301 | 1.6 | 9.7 | 0.05 | 0.25 | 0.05 | 89 | 1003.2 |
| 20260507051523 | 15 | 0 | 1.6 | 8.0 | 0.03 | 0.23 | 0.03 | 88 | 1003.4 |
| 20260507051023 | 15 | 88 | 1.6 | 12.9 | 0.03 | 0.23 | 0.03 | 88 | 1003.4 |
| 20260507050020 | 16 | 272 | 3.2 | 6.4 | 0.03 | 0.23 | 0.03 | 88 | 1003.3 |
| 20260507045020 | 17 | 305 | 1.6 | 8.0 | 0.03 | 0.23 | 0.03 | 88 | 1003.1 |
| 20260507044521 | 17 | 56 | 3.2 | 9.7 | 0.03 | 0.23 | 0.03 | 88 | 1003.0 |
| 20260507044020 | 17 | 79 | 3.2 | 9.7 | 0.00 | 0.20 | 0.00 | 88 | 1002.9 |
| 20260507043520 | 17 | 60 | 1.6 | 8.0 | 0.00 | 0.20 | 0.00 | 89 | 1003.2 |
| 20260507043016 | 18 | 343 | 0.0 | 3.2 | 0.00 | 0.20 | 0.00 | 89 | 1003.0 |
| 20260507042515 | 18 | 214 | 0.0 | 3.2 | 0.00 | 0.20 | 0.00 | 89 | 1002.7 |
| 20260507042016 | 18 | 214 | 0.0 | 3.2 | 0.00 | 0.20 | 0.00 | 88 | 1002.6 |
| 20260507041516 | 18 | 214 | 0.0 | 1.6 | 0.00 | 0.20 | 0.00 | 88 | 1002.3 |
| 20260507041014 | 18 | 214 | 0.0 | 1.6 | 0.00 | 0.20 | 0.00 | 87 | 1002.4 |
| 20260507040515 | 18 | 214 | 0.0 | 1.6 | 0.00 | 0.20 | 0.00 | 87 | 1002.7 |
| 20260507040015 | 18 | 214 | 0.0 | 0.0 | 0.00 | 0.20 | 0.00 | 87 | 1002.6 |
| 20260507035514 | 18 | 214 | 0.0 | 0.0 | 0.00 | 0.20 | 0.20 | 87 | 1002.5 |
| 20260507035016 | 18 | 214 | 0.0 | 0.0 | 0.00 | 0.20 | 0.20 | 87 | 1002.4 |
| 20260507034511 | 18 | 214 | 0.0 | 0.0 | 0.00 | 0.20 | 0.20 | 86 | 1002.4 |
| 20260507034010 | 18 | 214 | 0.0 | 0.0 | 0.00 | 0.20 | 0.20 | 86 | 1002.3 |
| 20260507033510 | 18 | 214 | 0.0 | 0.0 | 0.00 | 0.20 | 0.20 | 85 | 1002.3 |
| 20260507033011 | 18 | 214 | 0.0 | 0.0 | 0.00 | 0.20 | 0.20 | 85 | 1002.1 |
| 20260507032511 | 18 | 214 | 0.0 | 1.6 | 0.00 | 0.20 | 0.20 | 85 | 1002.0 |
| 20260507032010 | 18 | 214 | 0.0 | 1.6 | 0.00 | 0.20 | 0.20 | 84 | 1002.0 |
| 20260507031510 | 18 | 214 | 0.0 | 1.6 | 0.00 | 0.20 | 0.20 | 84 | 1002.3 |
| 20260507031010 | 18 | 214 | 0.0 | 0.0 | 0.00 | 0.20 | 0.20 | 84 | 1002.6 |
| 20260507030511 | 18 | 214 | 0.0 | 0.0 | 0.00 | 0.20 | 0.20 | 84 | 1002.5 |
| 20260507030007 | 18 | 214 | 0.0 | 0.0 | 0.00 | 0.20 | 0.20 | 84 | 1002.3 |
| 20260507025506 | 18 | 214 | 0.0 | 0.0 | 0.00 | 0.20 | 0.20 | 85 | 1002.1 |
| 20260507025006 | 18 | 214 | 0.0 | 0.0 | 0.00 | 0.20 | 0.20 | 85 | 1002.2 |
| 20260507024506 | 18 | 214 | 0.0 | 0.0 | 0.00 | 0.20 | 0.20 | 85 | 1002.2 |
| 20260507024003 | 18 | 214 | 0.0 | 0.0 | 0.00 | 0.20 | 0.20 | 85 | 1002.1 |
| 20260507023504 | 18 | 214 | 0.0 | 0.0 | 0.00 | 0.20 | 0.20 | 85 | 1001.8 |
| 20260507023004 | 18 | 214 | 0.0 | 0.0 | 0.00 | 0.20 | 0.20 | 85 | 1001.6 |
| 20260507022504 | 18 | 214 | 0.0 | 0.0 | 0.00 | 0.20 | 0.20 | 85 | 1001.4 |
| 20260507022004 | 18 | 214 | 0.0 | 0.0 | 0.00 | 0.20 | 0.20 | 84 | 1001.5 |
| 20260507021504 | 18 | 214 | 0.0 | 0.0 | 0.00 | 0.20 | 0.20 | 83 | 1001.5 |
| 20260507021007 | 18 | 214 | 0.0 | 0.0 | 0.00 | 0.20 | 0.20 | 84 | 1001.6 |
| 20260507020504 | 18 | 214 | 0.0 | 0.0 | 0.00 | 0.20 | 0.20 | 85 | 1001.8 |
| 20260507015501 | 18 | 214 | 0.0 | 1.6 | 0.00 | 0.20 | 0.20 | 85 | 1001.9 |
| 20260507015001 | 18 | 214 | 0.0 | 1.6 | 0.00 | 0.20 | 0.20 | 85 | 1001.9 |
| 20260507014459 | 18 | 276 | 0.0 | 0.0 | 0.00 | 0.20 | 0.20 | 84 | 1002.0 |
| 20260507014002 | 18 | 276 | 0.0 | 0.0 | 0.00 | 0.20 | 0.20 | 83 | 1002.1 |
| 20260507013459 | 18 | 276 | 0.0 | 1.6 | 0.00 | 0.20 | 0.20 | 83 | 1002.2 |
| 20260507013000 | 18 | 276 | 0.0 | 1.6 | 0.00 | 0.20 | 0.20 | 83 | 1002.3 |
| 20260507012500 | 18 | 276 | 0.0 | 1.6 | 0.00 | 0.20 | 0.20 | 83 | 1002.1 |
| 20260507012001 | 18 | 276 | 0.0 | 0.0 | 0.00 | 0.20 | 0.20 | 83 | 1002.3 |
| 20260507011000 | 18 | 276 | 0.0 | 0.0 | 0.00 | 0.20 | 0.20 | 82 | 1002.0 |
| 20260507010501 | 19 | 276 | 0.0 | 1.6 | 0.00 | 0.20 | 0.20 | 81 | 1002.0 |
| 20260507005457 | 19 | 353 | 0.0 | 3.2 | 0.00 | 0.20 | 0.20 | 81 | 1002.0 |
| 20260507005000 | 19 | 103 | 0.0 | 1.6 | 0.00 | 0.20 | 0.20 | 81 | 1001.9 |
| 20260507004457 | 19 | 160 | 0.0 | 1.6 | 0.00 | 0.20 | 0.20 | 80 | 1001.7 |
| 20260507003952 | 20 | 170 | 0.0 | 3.2 | 0.00 | 0.20 | 0.20 | 80 | 1001.8 |
| 20260507003449 | 20 | 270 | 0.0 | 3.2 | 0.00 | 0.20 | 0.20 | 80 | 1001.7 |
| 20260507002953 | 20 | 272 | 0.0 | 6.4 | 0.00 | 0.20 | 0.20 | 80 | 1001.8 |
| 20260507002447 | 20 | 212 | 0.0 | 6.4 | 0.00 | 0.20 | 0.20 | 80 | 1001.8 |
| 20260507001948 | 20 | 277 | 0.0 | 6.4 | 0.00 | 0.20 | 0.20 | 79 | 1001.8 |
| 20260507001446 | 20 | 310 | 0.0 | 6.4 | 0.00 | 0.20 | 0.20 | 80 | 1002.0 |
| 20260507000946 | 20 | 142 | 0.0 | 6.4 | 0.00 | 0.20 | 0.20 | 79 | 1001.8 |
| 20260506235940 | 20 | 222 | 0.0 | 9.7 | 0.00 | 0.20 | 0.20 | 79 | 1001.8 |
| 20260506235441 | 20 | 263 | 0.0 | 9.7 | 0.00 | 0.20 | 0.20 | 79 | 1001.7 |
| 20260506234939 | 20 | 285 | 0.0 | 3.2 | 0.00 | 0.20 | 0.20 | 78 | 1001.6 |
| 20260506234438 | 20 | 285 | 0.0 | 3.2 | 0.00 | 0.20 | 0.20 | 78 | 1001.5 |
| 20260506233938 | 20 | 234 | 0.0 | 3.2 | 0.00 | 0.20 | 0.20 | 78 | 1001.3 |
| 20260506233436 | 21 | 170 | 0.0 | 3.2 | 0.00 | 0.20 | 0.20 | 78 | 1001.2 |
| 20260506232434 | 21 | 73 | 1.6 | 9.7 | 0.00 | 0.20 | 0.20 | 77 | 1001.3 |
| 20260506231935 | 21 | 246 | 1.6 | 9.7 | 0.00 | 0.20 | 0.20 | 77 | 1001.1 |
| 20260506231432 | 21 | 212 | 1.6 | 6.4 | 0.00 | 0.20 | 0.20 | 77 | 1001.2 |
| 20260506230428 | 21 | 308 | 1.6 | 8.0 | 0.00 | 0.20 | 0.20 | 76 | 1001.2 |
| 20260506225927 | 21 | 217 | 1.6 | 11.3 | 0.00 | 0.20 | 0.20 | 76 | 1001.1 |